Location: Alpine Heights
(32.8181°N, 116.7809°W)
Time: 00:49:22
(UTC+00:00)

Okean 2 Rocket - Pass Details

Date: 14 April 2021
Orbit: 616 x 642 km, 82.5° (Epoch: 15 May)

Event Time Altitude Azimuth Distance (km) Brightness Sun altitude
Rises 12:36:41 0° 341° (NNW) 2,918 6.5 -9.3°
Reaches altitude 10° 12:39:06 10° 332° (NNW) 2,003 5.6 -8.8°
Maximum altitude 12:43:02 32° 270° (W) 1,079 3.8 -8.0°
Drops below altitude 10° 12:46:55 10° 207° (SSW) 1,978 5.3 -7.2°
Sets 12:49:18 0° 197° (SSW) 2,876 6.2 -6.7°
